Location: Newark
(49.8348°N, 24.0280°E)
Time: 19:19:29
(UTC+00:00)

Explorer 7 - Pass Details

Date: 22 January 2020
Orbit: 485 x 679 km, 50.3° (Epoch: 16 February)

Event Time Altitude Azimuth Distance (km) Brightness Sun altitude
Rises 03:20:11 0° 285° (WNW) 2,591 - -27.0°
Reaches altitude 10° 03:22:22 10° 279° (W) 1,725 - -26.7°
Maximum altitude 03:26:07 46° 206° (SSW) 709 - -26.1°
Exits shadow 03:27:36 31° 153° (SSE) 952 8.2 -25.8°
Drops below altitude 10° 03:30:03 10° 132° (SE) 1,813 10.1 -25.4°
Sets 03:32:25 0° 127° (SE) 2,740 11.2 -25.0°
